Weather History for KRDM - April, 2013

Change the Weather History Date:

Saturday, April 27, 2013

  Actual Average Record
Temperature  
Mean Temperature 54 °F 46 °F  
Max Temperature 75 °F 62 °F 88 °F (1987)
Min Temperature 33 °F 31 °F 13 °F (1970)
Degree Days  
Heating Degree Days 11 19  
Month to date heating degree days 562 566  
Since 1 July heating degree days 5787 6017  
Cooling Degree Days 0 0  
Month to date cooling degree days 0 0  
Year to date cooling degree days 0 0  
Growing Degree Days 4 (Base 50)    
Moisture  
Dew Point 27 °F    
Average Humidity 42    
Maximum Humidity 70    
Minimum Humidity 14    
Precipitation  
Precipitation 0.00 in 0.03 in 0.25 in (1990)
Month to date precipitation 0.10 0.65  
Year to date precipitation 0.85 2.93  
Sea Level Pressure  
Sea Level Pressure 30.19 in    
Wind  
Wind Speed 8 mph (NW)    
Max Wind Speed 25 mph    
Max Gust Speed 32 mph    
Visibility 10 miles    
Events      
T = Trace of Precipitation, MM = Missing Value Source: NWS Daily Summary

Daily Weather History Graph

Daily Weather History Graph

Search for Another Location

Airport or City:

Trip Planner

Search our weather history database for the weather conditions in past years. The results will help you decide how hot, cold, wet, or windy it might be!

Date:

Astronomy

Apr. 27, 2013 Rise Set
Actual Time 6:01 AM PDT 8:04 PM PDT
Civil Twilight 5:29 AM PDT 8:35 PM PDT
Nautical Twilight 4:51 AM PDT 9:14 PM PDT
Astronomical Twilight 4:08 AM PDT 9:57 PM PDT
Moon 10:43 PM PDT (4/27) 7:20 AM PDT (4/27)
Length of Visible Light 15h 05m
Length of Day
14h 03m
Waning Gibbous, 95% of the Moon is Illuminated
Apr 27
Waning Gibbous
May 2
Last Quarter
May 9
New
May 17
First Quarter
May 24
Full

Hourly Weather History & Observations

Time (PDT) Temp. Windchill Dew Point Humidity Pressure Visibility Wind Dir Wind Speed Gust Speed Precip Events Conditions
12:56 AM 44.1 °F - 30.9 °F 60% 30.25 in 10.0 mi Calm Calm - N/A   Clear
1:56 AM 41.0 °F 39.0 °F 30.9 °F 67% 30.25 in 10.0 mi South 3.5 mph - N/A   Clear
2:56 AM 39.0 °F 34.8 °F 28.9 °F 67% 30.24 in 10.0 mi SSE 5.8 mph - N/A   Clear
3:56 AM 39.9 °F 36.7 °F 28.0 °F 63% 30.23 in 10.0 mi SE 4.6 mph - N/A   Clear
4:56 AM 35.1 °F 32.2 °F 27.0 °F 72% 30.24 in 10.0 mi ESE 3.5 mph - N/A   Clear
5:56 AM 35.1 °F 30.1 °F 27.0 °F 72% 30.24 in 10.0 mi East 5.8 mph - N/A   Clear
6:56 AM 39.9 °F 34.5 °F 30.0 °F 68% 30.24 in 10.0 mi SSE 8.1 mph - N/A   Clear
7:56 AM 50.0 °F - 32.0 °F 50% 30.24 in 10.0 mi East 3.5 mph - N/A   Clear
8:56 AM 57.0 °F - 32.0 °F 39% 30.22 in 10.0 mi East 4.6 mph - N/A   Clear
9:56 AM 64.0 °F - 30.0 °F 28% 30.21 in 10.0 mi Calm Calm - N/A   Clear
10:56 AM 69.1 °F - 26.1 °F 20% 30.21 in 10.0 mi NNE 3.5 mph - N/A   Clear
11:56 AM 71.1 °F - 21.0 °F 15% 30.21 in 10.0 mi Variable 3.5 mph - N/A   Clear
12:56 PM 71.1 °F - 21.0 °F 15% 30.19 in 10.0 mi WNW 19.6 mph 24.2 mph N/A   Clear
1:56 PM 72.0 °F - 23.0 °F 16% 30.17 in 10.0 mi WNW 18.4 mph 25.3 mph N/A   Clear
2:56 PM 73.9 °F - 24.1 °F 16% 30.16 in 10.0 mi WNW 17.3 mph 25.3 mph N/A   Clear
3:56 PM 73.0 °F - 21.0 °F 14% 30.14 in 10.0 mi WNW 23.0 mph 27.6 mph N/A   Clear
4:56 PM 72.0 °F - 18.0 °F 13% 30.14 in 10.0 mi WNW 23.0 mph 28.8 mph N/A   Clear
5:56 PM 69.1 °F - 21.0 °F 16% 30.15 in 10.0 mi NW 17.3 mph - N/A   Clear
6:56 PM 68.0 °F - 26.1 °F 21% 30.14 in 10.0 mi WNW 17.3 mph 28.8 mph N/A   Clear
7:56 PM 64.0 °F - 26.1 °F 24% 30.14 in 10.0 mi West 18.4 mph 25.3 mph N/A   Clear
8:56 PM 60.1 °F - 30.0 °F 32% 30.15 in 10.0 mi NNW 5.8 mph - N/A   Clear
9:56 PM 57.0 °F - 30.9 °F 37% 30.15 in 10.0 mi NW 8.1 mph - N/A   Clear
10:56 PM 53.1 °F - 32.0 °F 45% 30.15 in 10.0 mi North 4.6 mph - N/A   Clear
11:56 PM 53.1 °F - 33.1 °F 47% 30.14 in 10.0 mi Calm Calm - N/A   Partly Cloudy